Location: George Washington National Forest Helicopter Landing Site
(38.6463°N, 79.0851°W)
Time: 11:39:27
(UTC-04:00)

Tiros 1 - All Passes

Search period start: 21 August 2019 00:00
Search period end: 31 August 2019 00:00
Orbit: 630 x 664 km, 48.4° (Epoch: 21 August)

Date Brightness Start Highest point End Pass type
(mag) Time Alt. Az. Time Alt. Az. Time Alt. Az.
21 Aug - 01:23:33 10° SW 01:28:08 77° SE 01:32:48 10° ENE visible
21 Aug - 03:06:29 10° W 03:10:40 33° NNW 03:14:54 10° NE visible
21 Aug - 04:50:01 10° NW 04:53:52 24° N 04:57:44 10° ENE visible
21 Aug - 06:32:24 10° NW 06:36:54 44° NNE 06:41:26 10° E daylight
21 Aug - 08:14:38 10° WNW 08:19:08 45° SW 08:23:39 10° SSE daylight
22 Aug - 00:08:13 10° SSW 00:12:16 31° SE 00:16:21 10° ENE night (unlit)
22 Aug - 01:49:45 10° WSW 01:54:17 55° NNW 01:58:52 10° NE visible
22 Aug - 03:33:19 10° WNW 03:37:12 25° N 03:41:07 10° NE visible
22 Aug - 05:16:21 10° NW 05:20:26 29° NNE 05:24:33 10° ENE visible
22 Aug - 06:58:25 10° NW 07:03:08 80° NNE 07:07:52 10° ESE daylight
22 Aug - 08:41:30 10° W 08:44:55 20° SW 08:48:20 10° S daylight
22 Aug - 22:54:56 10° SSE 22:56:39 12° SE 22:58:21 10° ESE night (unlit)
23 Aug - 00:33:35 10° SW 00:38:09 71° SE 00:42:47 10° ENE night (unlit)
23 Aug - 02:16:26 10° W 02:20:38 34° NNW 02:24:54 10° NE visible
23 Aug - 04:00:00 10° NW 04:03:48 24° N 04:07:39 10° ENE visible
23 Aug - 05:42:25 10° NW 05:46:52 42° NNE 05:51:21 10° E visible
23 Aug - 07:24:37 10° WNW 07:29:09 49° SW 07:33:42 10° SE daylight
23 Aug - 23:18:21 10° SSW 23:22:18 29° SE 23:26:16 10° ENE night (unlit)
24 Aug - 00:59:44 10° WSW 01:04:17 59° NNW 01:08:52 10° NE night (unlit)
24 Aug - 02:43:16 10° WNW 02:47:09 26° N 02:51:04 10° NE visible
24 Aug - 04:26:21 10° NW 04:30:23 28° NNE 04:34:27 10° ENE visible
24 Aug - 06:08:26 10° NW 06:13:07 75° NNE 06:17:50 10° ESE visible
24 Aug - 07:51:23 10° W 07:54:57 22° SW 07:58:32 10° S daylight
24 Aug - 22:05:41 10° SE 22:06:42 11° SE 22:07:43 10° ESE night (unlit)
24 Aug - 23:43:37 10° SW 23:48:10 65° SE 23:52:46 10° ENE night (unlit)
25 Aug - 01:26:22 10° W 01:30:36 35° NNW 01:34:53 10° NE visible
25 Aug - 03:09:57 10° NW 03:13:45 24° N 03:17:34 10° ENE visible
25 Aug - 04:52:26 10° NW 04:56:50 40° NNE 05:01:16 10° E visible
25 Aug - 06:34:36 10° WNW 06:39:10 53° SW 06:43:45 10° SE daylight
25 Aug - 22:28:31 10° SSW 22:32:21 26° SE 22:36:11 10° ENE night (unlit)
26 Aug - 00:09:42 10° WSW 00:14:16 62° NNW 00:18:52 10° NE night (unlit)
26 Aug - 01:53:12 10° WNW 01:57:06 26° N 02:01:02 10° NE visible
26 Aug - 03:36:21 10° NW 03:40:20 27° NNE 03:44:21 10° ENE visible
26 Aug - 05:18:26 10° NW 05:23:07 70° NNE 05:27:48 10° ESE visible
26 Aug - 07:01:16 10° W 07:04:59 23° SW 07:08:43 10° S daylight
26 Aug - 22:53:40 10° SW 22:58:12 60° SE 23:02:45 10° ENE night (unlit)
27 Aug - 00:36:18 10° W 00:40:34 37° NNW 00:44:53 10° NE night (unlit)
27 Aug - 02:19:56 10° NW 02:23:42 24° N 02:27:30 10° NE visible
27 Aug - 04:02:27 10° NW 04:06:48 38° NNE 04:11:11 10° E visible
27 Aug - 05:44:35 10° WNW 05:49:10 57° SW 05:53:47 10° SE visible
27 Aug - 21:38:42 10° S 21:42:23 24° SE 21:46:05 10° E visible
27 Aug - 23:19:41 10° WSW 23:24:15 67° NNW 23:28:52 10° NE night (unlit)
28 Aug - 01:03:07 10° WNW 01:07:04 27° N 01:11:01 10° NE night (unlit)
28 Aug - 02:46:20 10° NW 02:50:17 27° N 02:54:15 10° ENE visible
28 Aug - 04:28:27 10° NW 04:33:06 65° NNE 04:37:45 10° ESE visible
28 Aug - 06:11:11 10° W 06:15:01 25° SW 06:18:53 10° S visible
28 Aug - 22:03:43 10° SW 22:08:13 55° SE 22:12:44 10° ENE visible
28 Aug - 23:46:14 10° W 23:50:33 38° NNW 23:54:53 10° NE night (unlit)
29 Aug - 01:29:53 10° NW 01:33:39 24° N 01:37:26 10° NE night (unlit)
29 Aug - 03:12:28 10° NW 03:16:46 36° NNE 03:21:06 10° E visible
29 Aug - 04:54:34 10° WNW 04:59:11 62° SW 05:03:48 10° SE visible
29 Aug - 06:40:01 10° WSW 06:40:40 10° SW 06:41:19 10° SW daylight
29 Aug - 20:48:52 10° S 20:52:26 22° SE 20:55:59 10° E visible
29 Aug - 22:29:39 10° WSW 22:34:15 72° NNW 22:38:53 10° NE visible
30 Aug - 00:13:03 10° WNW 00:17:01 27° NNW 00:20:59 10° NE night (unlit)
30 Aug - 01:56:20 10° NW 02:00:14 26° N 02:04:10 10° ENE night (unlit)
30 Aug - 03:38:29 10° NW 03:43:05 61° NNE 03:47:43 10° ESE visible
30 Aug - 05:21:06 10° WNW 05:25:03 28° SW 05:29:01 10° SSE visible
30 Aug - 21:13:46 10° SW 21:18:14 50° SE 21:22:42 10° ENE visible
30 Aug - 22:56:10 10° W 23:00:31 40° NNW 23:04:54 10° NE visible
